STARLINK-11594, 64320

Orbit data source: Space-Track

STARLINK-11594, 64320 is a payload satellite owned by SpaceX/Seattle (US) in LEO that was launched on Tue, 10 Jun 2025 UTC via an FALCON 9 launch vehicle from the Air Force Eastern Test Range (AFETR). Payload-class satellites include a variety of spacecraft equipped with specific instruments for various scientific and technological missions. These include communications satellites like Starlink; space stations such as the ISS; scientific satellites like the Hubble; Earth observation satellites from companies like Planet Labs, Umbra, and HawkEye 360; GPS; miniature CubeSats for education and research; and military/defense satellites.

Loading next visibility...
Identifier
64320, 2025-124D
Orbit
LEO
Country
Flag of USUS
Related business
Manufacturer
SpaceX/Seattle
Mission
Operational Commercial Communications
Bus & Motor
STARLINK V2M, Unknown motor
Mass
730 kg wet, ~700 kg dry
Launch date (UTC)
2025-06-10 (3 months ago)
Launch vehicle
FALCON 9
Launch site
Air Force Eastern Test Range (AFETR)
Object type
Payload
Rocket body
Debris
Shape & HBR
Box + 2 Pan, 14.5 m
Radar Cross Section
36.964 m², Large (>1 m²)

Expand to show TLE details & history
Last TLE update: 6 hours ago

TLE from 6 hours ago
0 STARLINK-11594
1 64320U 25124D   25242.89809745  .00332631  00000-0  24800-2 0  9998
2 64320  42.9986  99.6214 0001673 254.3067 105.7617 15.70968690 12821
Epoch: 2025-08-30T21:33Z
TLE epoch observation values (Epoch: 2025-08-30T21:33:15.619Z)
Latitude
0.00003°
Longitude
156.98056°
Altitude
356.204 km
Speed
7.697 km/s
True Right ascension
06h 38m 29s
True Declination
0° 00' 00"
Sunlit
Object was in daylight at epoch
Visualization orbit readout
Latitude
Unknown
Longitude
Unknown
Altitude
Unknown
Speed
Unknown
Apparent Right ascension
Unknown
Apparent Declination
Unknown
Sunlit
N/A
Visualization observer readout
Local Sidereal Time
19:09:36
Azimuth
Unknown
Elevation
Unknown
Doppler factor
Unknown
Orbital elements
Apogee altitude
359.236 km
Perigee altitude
356.982 km
Semi-major axis
6,736.246 km
Eccentricity
0.00017
Inclination
42.9986°
RAAN
99.6214°
Arg. of periapsis
254.3067°
True anomaly
105.78015°
Mean anomaly
105.7617°
Eccentric anomaly
105.77092°
Mean motion
3.92569 °/min
Orbital period
91.7 mins
BSTAR
0.00248
Loading maneuver chart data...
Computing Atmospheric mass density...
Loading historical data...
Loading historical data...
Loading historical data...
Loading historical data...
Loading historical data...
Loading historical data...
Loading historical data...

Documentation

Showing up to 5 results
|